Regional Weather Roundup
Issued by NWS

Home | Current Version | Previous Version | Text Only | Print | Product List | Glossary Off
Versions: 1 2 3 4 5 6 7 8 9 10 11 12 13 14 15 16 17 18 19 20 21 22 23 24 25 26 27 28 29 30 31 32 33 34 35 36 37 38 39 40 41 42 43 44 45 46 47 48 49 50

000
ASUS43 KLSX 301059
RWRMO

WEATHER SUMMARY FOR MISSOURI
NATIONAL WEATHER SERVICE SPRINGFIELD MO
600 AM CDT THU JUL 30 2015

NOTE: "FAIR" INDICATES FEW OR NO CLOUDS BELOW 12,000 FEET WITH NO
       SIGNIFICANT WEATHER AND/OR OBSTRUCTIONS TO VISIBILITY.
       CURRENT SKY AND/OR WEATHER CONDITIONS ARE NOT AVAILABLE FOR
       CHILLICOTHE AND FARMINGTON.

MOZ001>031-035>038-043-044-053-054-301200-
...NORTHERN AND WESTERN MISSOURI...

CITY           SKY/WX    TMP DP  RH WIND       PRES   REMARKS
KANSAS CTY INT PTCLDY    66  63  90 CALM      30.17F
KANSAS C DTWN  CLEAR     68  66  93 CALM      30.17S
LEE`S SUMMIT   PTCLDY    66  65  96 CALM      30.18F
ST JOSEPH      FOG       62  62 100 CALM      30.18F VSB 3/4
CHILLICOTHE      N/A     63  61  93 CALM      30.17F
KIRKSVILLE     CLEAR     61  59  93 W3        30.17R

$$
MOZ066>068-077>081-088>096-101>105-301200-
...SOUTHWEST MISSOURI...

CITY           SKY/WX    TMP DP  RH WIND       PRES   REMARKS
SPRINGFIELD    PTCLDY    70  64  81 NE8       30.17R
JOPLIN         MOCLDY    73  66  78 E7        30.15S

$$
MOZ032>034-039>042-045>050-055>058-069>072-301200-
...CENTRAL MISSOURI...

CITY           SKY/WX    TMP DP  RH WIND       PRES   REMARKS
COLUMBIA       CLEAR     64  62  93 W3        30.17R
JEFFERSON CITY FOG       65  64  97 NW3       30.16R VSB 1/4
ROLLA          CLEAR     62  59  90 CALM      30.16R
SEDALIA        PTCLDY    66  62  87 CALM      30.18S
OSAGE BEACH    CLEAR     64  61  88 CALM      30.17S

$$
MOZ051-052-059>065-301200-
...EAST CENTRAL MISSOURI...

CITY           SKY/WX    TMP DP  RH WIND       PRES   REMARKS
ST LOUIS INTL  PTCLDY    69  61  75 W5        30.14R
SPIRIT OF STL  CLEAR     63  62  97 W5        30.13R
ST CHARLES     CLEAR     71  59  65 N5        30.12R

$$
MOZ072>076-082>087-097>100-106>115-301200-
...SOUTH CENTRAL AND SOUTHEAST MISSOURI...

CITY           SKY/WX    TMP DP  RH WIND       PRES   REMARKS
CAPE GIRARDEAU NOT AVBL
FARMINGTON     CLEAR     64  59  82 N3        30.19R
POPLAR BLUFF   CLEAR     68  64  87 N6        30.11R
WEST PLAINS    CLEAR     66  61  84 CALM      30.17S

$$



USA.gov is the U.S. government's official web portal to all federal, state and local government web resources and services.